SAS4581 ENEV-ENAT

Flight info

Callsign SAS4581
Flight time 0h 33m
Altitude 25000
Route LAVNA DCT BADIX
Aircraft A20N/M-SDE2E3FGHIRWXY/LB1

Departure

Time 2026-05-04 18:07
Airport Harstad/Narvik Airport (ENEV)

Arrival

Time 2026-05-04 18:40
Airport Alta Airport (ENAT)
Time Latitude Longitude Altitude Speed Heading
2026-05-04 17:58 68.49651 16.68125 68 ft 0 kts 358°
2026-05-04 17:59 68.49652 16.68125 68 ft 1 kts 358°
2026-05-04 17:59 68.49926 16.68095 66 ft 37 kts 358°
2026-05-04 18:00 68.50157 16.68071 85 ft 29 kts 358°
2026-05-04 18:00 68.50319 16.68049 87 ft 18 kts 356°
2026-05-04 18:00 68.50371 16.67968 92 ft 0 kts 306°
2026-05-04 18:05 68.50371 16.67969 92 ft 0 kts 306°
2026-05-04 18:06 68.50335 16.67688 95 ft 14 kts 181°
2026-05-04 18:06 68.50080 16.67714 90 ft 72 kts 178°
2026-05-04 18:06 68.49342 16.67797 96 ft 139 kts 177°
2026-05-04 18:07 68.48326 16.68015 625 ft 144 kts 175°
2026-05-04 18:07 68.47333 16.68216 1389 ft 147 kts 180°
2026-05-04 18:07 68.46209 16.68284 1768 ft 177 kts 180°
2026-05-04 18:07 68.44883 16.68379 2140 ft 201 kts 179°
2026-05-04 18:08 68.43485 16.69231 2724 ft 214 kts 155°
2026-05-04 18:08 68.42392 16.72080 3209 ft 234 kts 118°
2026-05-04 18:08 68.42107 16.76651 3616 ft 259 kts 84°
2026-05-04 18:08 68.42395 16.81553 4461 ft 265 kts 78°
2026-05-04 18:09 68.43113 16.91474 6436 ft 271 kts 78°
2026-05-04 18:09 68.44419 17.01005 8425 ft 274 kts 47°
2026-05-04 18:10 68.45865 17.04404 9410 ft 277 kts 34°
2026-05-04 18:10 68.47458 17.07478 10096 ft 292 kts 38°
2026-05-04 18:10 68.48966 17.11590 10488 ft 317 kts 48°
2026-05-04 18:10 68.50406 17.16327 11207 ft 329 kts 50°
2026-05-04 18:11 68.51838 17.21279 12177 ft 335 kts 51°
2026-05-04 18:11 68.53276 17.26330 13215 ft 339 kts 51°
2026-05-04 18:11 68.54706 17.31390 14092 ft 344 kts 52°
2026-05-04 18:11 68.56177 17.36617 14905 ft 350 kts 52°
2026-05-04 18:12 68.57673 17.41952 15716 ft 355 kts 52°
2026-05-04 18:12 68.59187 17.47365 16537 ft 360 kts 53°
2026-05-04 18:12 68.60721 17.52865 17344 ft 365 kts 53°
2026-05-04 18:12 68.62270 17.58432 18098 ft 370 kts 53°
2026-05-04 18:13 68.63838 17.64078 18796 ft 374 kts 54°
2026-05-04 18:13 68.65422 17.69802 19488 ft 379 kts 54°
2026-05-04 18:13 68.68620 17.81410 20880 ft 387 kts 54°
2026-05-04 18:14 68.70253 17.87361 21573 ft 392 kts 54°
2026-05-04 18:14 68.71899 17.93373 22235 ft 396 kts 54°
2026-05-04 18:14 68.73562 17.99466 22809 ft 401 kts 55°
2026-05-04 18:15 68.76945 18.11912 23847 ft 410 kts 55°
2026-05-04 18:15 68.80387 18.24646 24485 ft 416 kts 55°
2026-05-04 18:15 68.82112 18.31056 24508 ft 417 kts 55°
2026-05-04 18:16 68.83844 18.37511 24512 ft 418 kts 55°
2026-05-04 18:16 68.85574 18.43978 24509 ft 418 kts 55°
2026-05-04 18:16 68.87301 18.50450 24507 ft 418 kts 55°
2026-05-04 18:17 68.90746 18.63430 24494 ft 417 kts 55°
2026-05-04 18:17 68.92462 18.69922 24502 ft 417 kts 56°
2026-05-04 18:17 68.95885 18.82934 24502 ft 417 kts 56°
2026-05-04 18:18 68.97592 18.89453 24508 ft 417 kts 56°
2026-05-04 18:18 68.99280 18.95916 24508 ft 417 kts 56°
2026-05-04 18:18 69.00986 19.02470 24508 ft 417 kts 56°
2026-05-04 18:18 69.02685 19.09017 24508 ft 416 kts 56°
2026-05-04 18:19 69.06080 19.22153 24515 ft 416 kts 56°
2026-05-04 18:19 69.07201 19.26512 24511 ft 416 kts 56°
2026-05-04 18:19 69.09465 19.35335 24511 ft 416 kts 56°
2026-05-04 18:20 69.10583 19.39709 24509 ft 416 kts 56°
2026-05-04 18:20 69.12813 19.48453 24510 ft 416 kts 56°
2026-05-04 18:20 69.14497 19.55079 24511 ft 416 kts 56°
2026-05-04 18:20 69.15635 19.59568 24518 ft 416 kts 56°
2026-05-04 18:21 69.17290 19.66115 24512 ft 416 kts 56°
2026-05-04 18:21 69.19527 19.74994 24512 ft 416 kts 56°
2026-05-04 18:21 69.20638 19.79419 24515 ft 416 kts 56°
2026-05-04 18:21 69.22308 19.86087 24516 ft 416 kts 56°
2026-05-04 18:22 69.23973 19.92754 24523 ft 416 kts 57°
2026-05-04 18:22 69.25636 19.99435 24517 ft 416 kts 57°
2026-05-04 18:22 69.27294 20.06115 24524 ft 416 kts 57°
2026-05-04 18:22 69.28952 20.12817 24526 ft 416 kts 57°
2026-05-04 18:23 69.30606 20.19523 24525 ft 416 kts 57°
2026-05-04 18:23 69.32258 20.26238 24523 ft 416 kts 57°
2026-05-04 18:23 69.33908 20.32969 24528 ft 416 kts 57°
2026-05-04 18:23 69.35557 20.39719 24521 ft 416 kts 57°
2026-05-04 18:24 69.37205 20.46482 24526 ft 418 kts 57°
2026-05-04 18:24 69.38854 20.53274 24525 ft 418 kts 57°
2026-05-04 18:24 69.40501 20.60078 24534 ft 418 kts 57°
2026-05-04 18:24 69.42150 20.66911 24535 ft 418 kts 57°
2026-05-04 18:25 69.43773 20.73658 24531 ft 418 kts 57°
2026-05-04 18:25 69.45412 20.80493 24534 ft 418 kts 57°
2026-05-04 18:25 69.47049 20.87338 24347 ft 417 kts 57°
2026-05-04 18:25 69.48683 20.94196 23543 ft 421 kts 57°
2026-05-04 18:26 69.50335 21.01153 22630 ft 426 kts 58°
2026-05-04 18:26 69.51989 21.08139 22055 ft 420 kts 58°
2026-05-04 18:26 69.53618 21.15036 21363 ft 417 kts 58°
2026-05-04 18:26 69.55229 21.21881 20661 ft 414 kts 58°
2026-05-04 18:27 69.56825 21.28690 20005 ft 411 kts 58°
2026-05-04 18:27 69.58401 21.35430 19396 ft 406 kts 58°
2026-05-04 18:27 69.59969 21.42162 18783 ft 403 kts 58°
2026-05-04 18:27 69.61520 21.48837 18140 ft 401 kts 58°
2026-05-04 18:28 69.63053 21.55453 17407 ft 396 kts 58°
2026-05-04 18:28 69.64555 21.61957 16656 ft 385 kts 58°
2026-05-04 18:28 69.65987 21.68172 16074 ft 372 kts 58°
2026-05-04 18:28 69.67389 21.74279 15500 ft 360 kts 58°
2026-05-04 18:29 69.68750 21.80225 14944 ft 354 kts 58°
2026-05-04 18:29 69.70102 21.86154 14445 ft 353 kts 58°
2026-05-04 18:29 69.71443 21.92050 13902 ft 352 kts 58°
2026-05-04 18:29 69.72781 21.97945 13370 ft 350 kts 58°
2026-05-04 18:30 69.75423 22.09628 12245 ft 345 kts 58°
2026-05-04 18:30 69.76725 22.15405 11712 ft 342 kts 57°
2026-05-04 18:30 69.78196 22.20755 11208 ft 341 kts 44°
2026-05-04 18:31 69.80157 22.24525 10860 ft 339 kts 25°
2026-05-04 18:31 69.82314 22.27050 10689 ft 328 kts 20°
2026-05-04 18:31 69.84430 22.29258 10407 ft 319 kts 20°
2026-05-04 18:31 69.86504 22.31395 10091 ft 312 kts 20°
2026-05-04 18:32 69.88508 22.33474 9918 ft 300 kts 20°
2026-05-04 18:32 69.90447 22.35498 9588 ft 296 kts 20°
2026-05-04 18:32 69.92402 22.37552 9083 ft 296 kts 20°
2026-05-04 18:32 69.94332 22.39588 8634 ft 294 kts 20°
2026-05-04 18:33 69.96251 22.41620 8204 ft 292 kts 20°
2026-05-04 18:33 69.98156 22.43643 7757 ft 291 kts 20°
2026-05-04 18:33 70.00052 22.45657 7344 ft 289 kts 20°
2026-05-04 18:33 70.01917 22.47644 6872 ft 288 kts 20°
2026-05-04 18:34 70.03800 22.49712 6379 ft 289 kts 25°
2026-05-04 18:34 70.05387 22.53029 6018 ft 274 kts 53°
2026-05-04 18:34 70.06165 22.57875 5790 ft 257 kts 79°
2026-05-04 18:34 70.06478 22.62932 5495 ft 250 kts 84°
2026-05-04 18:35 70.06705 22.67986 5130 ft 249 kts 85°
2026-05-04 18:35 70.06920 22.72932 4975 ft 238 kts 85°
2026-05-04 18:35 70.07125 22.77570 4987 ft 221 kts 85°
2026-05-04 18:35 70.07320 22.81960 4990 ft 215 kts 85°
2026-05-04 18:36 70.07430 22.86210 4940 ft 201 kts 99°
2026-05-04 18:36 70.07154 22.90071 4644 ft 192 kts 111°
2026-05-04 18:36 70.06585 22.93605 4242 ft 193 kts 121°
2026-05-04 18:36 70.05892 22.97017 3835 ft 194 kts 121°
2026-05-04 18:37 70.05201 23.00403 3477 ft 192 kts 121°
2026-05-04 18:37 70.04520 23.03729 3140 ft 189 kts 120°
2026-05-04 18:37 70.03849 23.06985 2782 ft 185 kts 120°
2026-05-04 18:37 70.03189 23.10186 2409 ft 182 kts 120°
2026-05-04 18:38 70.02543 23.13320 2076 ft 178 kts 120°
2026-05-04 18:38 70.01908 23.16394 1807 ft 175 kts 120°
2026-05-04 18:38 70.01297 23.19349 1568 ft 165 kts 120°
2026-05-04 18:38 70.00723 23.22126 1306 ft 154 kts 120°
2026-05-04 18:39 70.00176 23.24706 1051 ft 144 kts 120°
2026-05-04 18:39 69.99686 23.27146 825 ft 137 kts 118°
2026-05-04 18:39 69.99191 23.29509 589 ft 136 kts 119°
2026-05-04 18:39 69.98706 23.31859 341 ft 133 kts 120°
2026-05-04 18:40 69.98238 23.34122 101 ft 128 kts 117°
2026-05-04 18:40 69.97805 23.36221 36 ft 107 kts 123°
2026-05-04 18:40 69.97481 23.37773 39 ft 68 kts 121°
2026-05-04 18:40 69.97347 23.38467 38 ft 30 kts 116°
2026-05-04 18:41 69.97259 23.38921 41 ft 11 kts 115°
2026-05-04 18:41 69.97237 23.38889 41 ft 4 kts 298°
2026-05-04 18:41 69.97284 23.38707 39 ft 23 kts 303°
2026-05-04 18:41 69.97408 23.38123 38 ft 44 kts 300°
2026-05-04 18:42 69.97581 23.37284 37 ft 50 kts 301°
2026-05-04 18:42 69.97759 23.36434 38 ft 50 kts 301°
2026-05-04 18:42 69.97929 23.35615 39 ft 28 kts 300°
2026-05-04 18:42 69.97895 23.35268 37 ft 19 kts 229°
2026-05-04 18:43 69.97875 23.34959 36 ft 11 kts 274°
2026-05-04 18:43 69.97838 23.34837 38 ft 5 kts 209°
2026-05-04 18:43 69.97824 23.34812 38 ft 2 kts 212°
2026-05-04 18:43 69.97819 23.34804 38 ft 1 kts 211°
2026-05-04 18:52 69.97820 23.34804 38 ft 0 kts 211°
2026-05-04 18:58 69.97820 23.34805 38 ft 0 kts 211°
2026-05-04 19:12 69.97820 23.34806 38 ft 0 kts 211°
2026-05-04 19:22 69.97821 23.34806 38 ft 0 kts 210°
2026-05-04 19:26 69.97821 23.34807 38 ft 0 kts 209°